Арсланбоб

Киргизия     41°19′45″N   72°56′27″E
темп.,
°C
ветер,
м/с
пор.,
м/с
влажн.,
%
обл.,
%
осадки,
мм/ч
давл.,
гПа
погр.,
м
26 февраля, пт
пт2600:00−12ссв3383100 0.9 104136
03:00−13с3480100 0.1 104046
06:00−14с4477100 0.1 104047
09:00−13с3374100 0.0 104051
12:00−8ююз116577 0.0 1035430
15:00−6ююз21710 0.0 1031473
18:00−10юз01840 0.0 103321
21:00−12с44550 0.0 103535
27 февраля, сб
сб2700:00−12с445417 0.0 103435
03:00−12ссв345091 0.0 103230
06:00−11ссв335286 0.0 103231
09:00−10св2360100 0.0 103236
12:00−5ю1156100 0.0 1030259
15:00−5ю2168100 0.0 1030383
18:00−7св2283100 0.3 1034146
21:00−9ссв568198 0.1 103782
28 февраля, вс
вс2800:00−9с557168 0.1 103761
03:00−8ссв55630 0.0 103658
06:00−8ссв44610 0.0 103550
09:00−7ссв23640 0.0 103347
12:00−1вюв12790 0.0 1028172
15:00−1ююв11900 0.0 1025138
18:00−2всв11774 0.0 102525
21:00−5ссв33520 0.0 102828
1 марта, пн
пн100:00−5ссв34430 0.0 102833
03:00−4ссв34420 0.0 102737
06:00−4ссв34420 0.0 102738
09:00−3св335210 0.0 102738
12:00+1в119312 0.0 102356
15:00+2всв129771 0.0 102231
18:00+1всв227354 0.0 102228
21:00−1ссв34460 0.0 102636
2 марта, вт
вт200:00−2ссв34430 0.0 102734
03:00−2ссв34410 0.0 102734
06:00−3ссв344217 0.0 102736
09:00−1ссв345040 0.0 102744
12:00+2всв229553 0.0 102436
15:00+3всв2298100 0.0 102227
18:00+2св2266100 0.0 102324
21:00+1ссв3453100 0.0 102429